Flag for U.S.A. Weather past 2 weeks in Orlando, Florida, U.S.A.

Now
79 °F

Clear.


Feels Like: 82 °F
Forecast: 71 / 87 °F
Wind: No wind

Location: Orlando Executive Airport

Current Time: Apr 19, 2015 at 1:33:51 AM

Latest Report: Apr 19, 2015 at 12:53 AM


Visibility: 10 mi

Pressure: 29.98 "Hg

Humidity: 74%

Dew point: 70 °F

Location of OrlandoLocation

Historic Weather in Orlando — Graph

°F

Orlando temperature yesterday

Maximum temperature yesterday: 88 °F (at 2:53 PM)
Minimum temperature yesterday: 72 °F (at 12:53 AM)
Average temperature yesterday: 80 °F

Past Weeks' High & Low Weather Summary

 TemperatureHumidityPressure
High90 °F (Apr 11, 3:53 PM)97% (Apr 7, 6:53 AM)30.21 "Hg (Apr 7, 6:53 AM)
Low66 °F (Apr 4, 6:53 AM)31% (Apr 4, 6:53 PM)29.91 "Hg (Apr 18, 4:53 PM)
Average76 °F75%30.11 "Hg
* Reported Apr 3 11:53 PM — Apr 18 11:53 PM, Orlando, Weather by CustomWeather, © 2015

Note: Actual official high and low records may vary slightly from our data, if they occured in-between our weather recording intervals... More about our weather records

Advertising

Orlando weather history for previous 24 hours

 ConditionsComfort  
Time TempWeatherWind HumidityBarometerVisibility
11:53 PM
Sat, Apr 18
79 °FClear.3 mph74%29.99 "Hg10 mi
10:53 PM80 °FClear.7 mph71%30.00 "Hg10 mi
9:53 PM82 °FClear.8 mph65%29.98 "Hg10 mi
8:53 PM83 °FClear.7 mph61%29.96 "Hg10 mi
7:53 PM84 °FSunny.8 mph59%29.94 "Hg10 mi
6:53 PM85 °FSunny.9 mph57%29.92 "Hg10 mi
5:53 PM87 °FScattered clouds.8 mph53%29.91 "Hg10 mi
4:53 PM87 °FSunny.7 mph53%29.91 "Hg10 mi
3:53 PM87 °FPassing clouds.15 mph55%29.93 "Hg10 mi
2:53 PM88 °FPassing clouds.14 mph52%29.95 "Hg10 mi
1:53 PM87 °FPassing clouds.14 mph53%29.98 "Hg10 mi
12:53 PM86 °FSunny.13 mph59%30.00 "Hg10 mi
11:53 AM84 °FSunny.10 mph61%30.00 "Hg10 mi
10:53 AM82 °FPassing clouds.7 mph65%30.01 "Hg10 mi
9:53 AM79 °FPassing clouds.3 mph79%29.99 "Hg10 mi
8:53 AM76 °FSunny.5 mph85%29.99 "Hg10 mi
7:53 AM74 °FClear.3 mph94%29.99 "Hg8 mi
6:53 AM73 °FLow clouds.No wind94%29.98 "Hg8 mi
5:53 AM73 °FPassing clouds.3 mph94%29.97 "Hg8 mi
4:53 AM72 °FPassing clouds.No wind93%29.96 "Hg8 mi
3:53 AM72 °FPassing clouds.5 mph93%29.97 "Hg8 mi
2:53 AM72 °FLow clouds.No wind93%29.99 "Hg8 mi
2:03 AM73 °FPassing clouds.No wind90%30.00 "Hg10 mi
1:53 AM72 °FPassing clouds.No wind93%30.00 "Hg10 mi
Weather by CustomWeather, © 2015

See weather overviewHow to use our weather pages